Whidbey Island, WA

8:09 PM PDT on July 24, 2017 (GMT -0700)
Whidbey Island Naval Air Station

Weather History for KNUW - May, 2013

Change the Weather History Date:

Tuesday, May 28, 2013

  Actual Average Record
Temperature  
Mean Temperature 55 °F -  
Max Temperature 62 °F 59 °F 68 °F (1997)
Min Temperature 48 °F 45 °F 42 °F (1999)
Degree Days  
Heating Degree Days 10    
Growing Degree Days 5 (Base 50)    
Moisture  
Dew Point 48 °F    
Average Humidity 80    
Maximum Humidity 90    
Minimum Humidity 64    
Precipitation  
Precipitation 0.01 in - - ()
Sea Level Pressure  
Sea Level Pressure 29.83 in    
Wind  
Wind Speed 14 mph (SSE)    
Max Wind Speed 22 mph    
Max Gust Speed 30 mph    
Visibility 10 miles    
Events Rain    
Averages and records for this station are not official NWS values.
T = Trace of Precipitation, MM = Missing Value Source: NWS Daily Summary

Daily Weather History Graph

Daily Weather History Graph

Search for Another Location

Airport or City:

Trip Planner

Search our weather history database for the weather conditions in past years. The results will help you decide how hot, cold, wet, or windy it might be!

Date:

Astronomy

May. 28, 2013 Rise Set
Actual Time 5:16 AM PDT 9:00 PM PDT
Civil Twilight 4:36 AM PDT 9:39 PM PDT
Nautical Twilight 3:43 AM PDT 10:34 PM PDT
Astronomical Twilight 2:25 AM PDT 11:52 PM PDT
Moon No Moon Rise 9:19 AM PDT (5/28)
Length of Visible Light 17h 03m
Length of Day
15h 43m
Waning Gibbous, 82% of the Moon is Illuminated
May 28
Waning Gibbous
May 31
Last Quarter
Jun 8
New
Jun 16
First Quarter
Jun 23
Full

Hourly Weather History & Observations

Time (PDT) Temp. Dew Point Humidity Pressure Visibility Wind Dir Wind Speed Gust Speed Precip Events Conditions
12:56 AM 54.0 °F 51.1 °F 90% 29.78 in 4.0 mi SSE 13.8 mph - 0.00 in Rain Light Rain
1:56 AM 54.0 °F 50.0 °F 86% 29.78 in 10.0 mi SSE 13.8 mph - 0.00 in   Overcast
2:56 AM 54.0 °F 48.9 °F 83% 29.79 in 10.0 mi SSE 16.1 mph - N/A   Overcast
3:56 AM 53.1 °F 48.9 °F 86% 29.80 in 10.0 mi SSE 15.0 mph 21.9 mph N/A   Overcast
4:56 AM 53.1 °F 48.0 °F 83% 29.81 in 10.0 mi SSE 13.8 mph - N/A   Overcast
5:56 AM 53.1 °F 48.0 °F 83% 29.82 in 10.0 mi SSE 18.4 mph - N/A   Mostly Cloudy
6:56 AM 54.0 °F 48.0 °F 80% 29.83 in 10.0 mi SSE 18.4 mph 25.3 mph N/A   Overcast
7:56 AM 54.0 °F 48.0 °F 80% 29.83 in 10.0 mi SSE 16.1 mph 26.5 mph N/A   Overcast
8:56 AM 55.0 °F 48.0 °F 77% 29.84 in 10.0 mi SSE 19.6 mph - N/A   Overcast
9:56 AM 57.0 °F 48.9 °F 74% 29.85 in 10.0 mi SE 21.9 mph 27.6 mph N/A   Overcast
10:56 AM 57.9 °F 48.9 °F 72% 29.86 in 10.0 mi SSE 18.4 mph 25.3 mph 0.00 in Rain Light Rain
11:34 AM 57.2 °F 48.2 °F 72% 29.85 in 10.0 mi SSE 20.7 mph - 0.00 in Rain Light Rain
11:56 AM 57.0 °F 48.9 °F 74% 29.87 in 10.0 mi SSE 18.4 mph 29.9 mph 0.00 in Rain Light Rain
12:56 PM 57.0 °F 48.9 °F 74% 29.87 in 9.0 mi SE 16.1 mph - 0.01 in Rain Light Rain
1:30 PM 59.0 °F 48.2 °F 67% 29.86 in 9.0 mi SSE 18.4 mph - 0.00 in   Overcast
1:56 PM 60.1 °F 48.9 °F 67% 29.87 in 9.0 mi SE 16.1 mph 25.3 mph 0.00 in   Overcast
2:56 PM 60.1 °F 48.0 °F 64% 29.87 in 10.0 mi SE 17.3 mph 24.2 mph N/A   Mostly Cloudy
3:56 PM 60.1 °F 48.0 °F 64% 29.86 in 10.0 mi SE 13.8 mph - N/A   Overcast
4:56 PM 54.0 °F 48.9 °F 83% 29.86 in 10.0 mi SW 12.7 mph - N/A   Mostly Cloudy
5:12 PM 53.6 °F 48.2 °F 82% 29.86 in 8.0 mi SW 12.7 mph - 0.00 in Rain Light Rain
5:44 PM 53.6 °F 48.2 °F 82% 29.85 in 10.0 mi SW 6.9 mph - 0.00 in   Overcast
5:56 PM 54.0 °F 48.9 °F 83% 29.86 in 10.0 mi SW 6.9 mph - 0.00 in   Mostly Cloudy
6:56 PM 55.0 °F 50.0 °F 83% 29.84 in 10.0 mi SSW 5.8 mph - N/A   Mostly Cloudy
7:56 PM 52.0 °F 48.0 °F 86% 29.83 in 10.0 mi SSW 8.1 mph - N/A   Mostly Cloudy
8:56 PM 52.0 °F 48.0 °F 86% 29.81 in 10.0 mi SE 4.6 mph - N/A   Mostly Cloudy
9:56 PM 50.0 °F 46.9 °F 89% 29.81 in 10.0 mi SE 3.5 mph - N/A   Mostly Cloudy
10:56 PM 50.0 °F 46.9 °F 89% 29.81 in 10.0 mi ESE 3.5 mph - N/A   Mostly Cloudy
11:56 PM 48.9 °F 46.0 °F 90% 29.79 in 10.0 mi East 3.5 mph - N/A   Mostly Cloudy